AirNav   ATP
 
 796 users online  

88AZ
(formerly E75)
Grapevine Airstrip
Roosevelt, Arizona, USA

GOING TO ROOSEVELT?


FAA INFORMATION EFFECTIVE 24 MAY 2018

Location

FAA Identifier: 88AZ
Lat/Long: 33-38-27.2700N / 111-03-24.9000W
33-38.454500N / 111-03.415000W
33.6409083 / -111.0569167
(estimated)
Elevation: 2329 ft. / 710 m (estimated)
Variation: 11E (2015)
From city: 5 miles SE of ROOSEVELT, AZ
Time zone: UTC -7 (year round; does not observe DST)
Zip code: 85545

Airport Operations

Airport use: Private use. Permission required prior to landing
Activation date: 11/2016
Control tower: no
ARTCC: ALBUQUERQUE CENTER
FSS: PRESCOTT FLIGHT SERVICE STATION
Attendance: 
Wind indicator: yes
Segmented circle: yes

Airport Communications

CTAF: 122.9

Nearby radio navigation aids

VOR radial/distance  VOR name  Freq  Var
IWAr043/36.0WILLIE VORTAC113.3013E

Airport Services

Runway Information

Runway 17/35

Dimensions: 3800 x 40 ft. / 1158 x 12 m
Surface: asphalt/concrete
RUNWAY 17  RUNWAY 35
Traffic pattern: leftleft
Runway heading: 159 magnetic, 170 true339 magnetic, 350 true

Airport Ownership and Management from official FAA records

Ownership: Publicly-owned
Owner: U.S. FOREST SERV, TONTO NATL FOREST
TONTO BASIN DISTRICT, 28079 N. AZ HWY 188
ROOSEVELT, AZ 85545
Phone (602) 225-5395
Manager: U.S. FOREST SERV, TONTO NATL FOREST
TONTO BASIN DISTRICT, 28079 N. AZ HWY 188
ROOSEVELT, AZ 85545
Phone (602) 225-5395

Additional Remarks

USE AT PILOTS OWN RISK, NO TRAINING OR TOUCH AND GOES PERMITED.
CONTACT GRAPEVINE@AZPILOTS.ORG FOR CAMPING AND USE INFO.
HAZARDOUS RUNWAY EDGES, AVOID USAGE WHEN CROSS WINDS PRESENT.
RISING TERRAIN WEST OF RWY.
MILTARY TRAINING ACTIVITY POSSIBLE.
DIRT PARKING EAST SIDE OF RWY AT MIDFIELD, NO TIE DOWNS. LIMITED RAMP PARKING W/TIE DOWNS AT WEST RAMP. CALM WIND RWY 17.
AVOID OVERFLIGHT OF TONTO NATIONAL MONUMENT, 3.25 MILES WNW OF AIRSTRIP, OR ANY CAMP GROUNDS.

Instrument Procedures

There are no published instrument procedures at 88AZ.

Some nearby airports with instrument procedures:

P13 - San Carlos Apache Airport (26 nm SE)
KFFZ - Falcon Field Airport (35 nm W)
KIWA - Phoenix-Mesa Gateway Airport (36 nm SW)
KPAN - Payson Airport (40 nm N)
KSDL - Scottsdale Airport (43 nm W)
 
Loc | Ops | Rwys | IFR | FBO | Links
Com | Nav | Svcs | Stats | Notes

AirNav Hotels Sweepstakes
 
Aerial photo
No photo
 
Airport distance calculator
Flying to Grapevine Airstrip? Find the distance to fly.

From to 88AZ

Sunrise and sunset
Times for 26-May-2018
 Local
(UTC-7)
 Zulu
(UTC)
Morning civil twilight04:5011:50
Sunrise05:1812:18
Sunset19:2402:24
Evening civil twilight19:5302:53

Current date and time
Zulu (UTC)  27-May-2018 01:33:46
Local (UTC-7)  26-May-2018 18:33:46
 
METAR
KFFZ 
35nm W 
270047Z 25015G20KT 40SM FEW250 32/M03 A2975
KIWA 
36nm SW 
270055Z 25016KT 35SM SCT200 32/M04 A2976
KPAN 
40nm N 
270115Z AUTO 22008G16KT 10SM CLR 22/M07 A2994 RMK AO2
KSDL 
43nm W 
270053Z 25012G16KT 10SM CLR 31/M02 A2977 RMK AO2 SLP057 T03061022
KCHD 
44nm SW 
270047Z 27014KT 10SM SCT200 32/M06 A2974
TAF
KIWA 
36nm SW 
261720Z 2618/2718 22008KT P6SM SCT250 FM262000 26012G18KT P6SM FEW250 FM270400 27010KT P6SM FEW250 FM270900 13006KT P6SM SKC
KSDL 
43nm W 
261934Z 2620/2718 25010KT P6SM SCT250 TEMPO 2620/2624 24012G18KT FM270400 VRB04KT P6SM SCT250
NOTAMs
Click for the latest NOTAMs
NOTAMs are issued by the DoD/FAA and will open in a separate window not controlled by AirNav.

 

 
 

Would you like to see your business listed on this page?

 If your business provides an interesting product or service to pilots, flight crews, aircraft, or users of the Grapevine Airstrip, you should consider listing it here.  To start the listing process, click on the button below
 
Add a business
 

Other Pages about Grapevine Airstrip

Update a link
 
Copyright © AirNav, LLC. All rights reserved. Privacy Policy  Contact